Hourly Weather Baton Rouge

Today, 16 June, Wednesday

Time Temperature Precipitation Wind Pressure Humidity
00:00 +26°C° 0.1 mm 1 mps 759 mmHg 92%
01:00 +26°C° 0 mm 1 mps 759 mmHg 92%
02:00 +26°C° 0 mm 1 mps 759 mmHg 93%
03:00 +26°C° 0 mm 1 mps 758 mmHg 93%
04:00 +26°C° 0 mm 1 mps 759 mmHg 93%
05:00 +26°C° 0 mm 1 mps 759 mmHg 92%
06:00 +26°C° 0 mm 1 mps 759 mmHg 92%
07:00 +27°C° 0 mm 1 mps 760 mmHg 84%
08:00 +29°C° 0 mm 2 mps 760 mmHg 76%
09:00 +31°C° 0 mm 2 mps 760 mmHg 68%
10:00 +33°C° 0 mm 3 mps 760 mmHg 62%
11:00 +34°C° 0 mm 3 mps 760 mmHg 55%
12:00 +36°C° 0 mm 3 mps 760 mmHg 49%
13:00 +36°C° 0 mm 3 mps 759 mmHg 47%
14:00 +36°C° 0 mm 3 mps 759 mmHg 44%
15:00 +36°C° 0 mm 3 mps 758 mmHg 41%
16:00 +35°C° 0 mm 3 mps 758 mmHg 48%
17:00 +33°C° 0 mm 3 mps 758 mmHg 54%
18:00 +31°C° 0 mm 2 mps 758 mmHg 61%
19:00 +29°C° 0 mm 2 mps 759 mmHg 62%
20:00 +28°C° 0 mm 2 mps 759 mmHg 63%
21:00 +27°C° 0 mm 2 mps 759 mmHg 64%
22:00 +26°C° 0 mm 2 mps 759 mmHg 67%
23:00 +25°C° 0 mm 2 mps 759 mmHg 71%

Tomorrow, 17 June, Thursday

Time Temperature Precipitation Wind Pressure Humidity
00:00 +24°C° 0 mm 2 mps 760 mmHg 74%
01:00 +24°C° 0 mm 2 mps 759 mmHg 74%
02:00 +23°C° 0 mm 2 mps 759 mmHg 73%
03:00 +23°C° 0 mm 2 mps 759 mmHg 73%
04:00 +23°C° 0 mm 2 mps 759 mmHg 74%
05:00 +21°C° 0 mm 2 mps 759 mmHg 75%
06:00 +21°C° 0 mm 2 mps 760 mmHg 77%
07:00 +25°C° 0 mm 2 mps 760 mmHg 69%
08:00 +27°C° 0 mm 3 mps 760 mmHg 62%
09:00 +30°C° 0 mm 3 mps 760 mmHg 54%
10:00 +31°C° 0 mm 3 mps 760 mmHg 49%
11:00 +33°C° 0 mm 3 mps 760 mmHg 44%
12:00 +34°C° 0 mm 3 mps 759 mmHg 39%
13:00 +35°C° 0 mm 3 mps 759 mmHg 40%
14:00 +35°C° 0 mm 3 mps 758 mmHg 41%
15:00 +35°C° 0 mm 3 mps 758 mmHg 42%
16:00 +34°C° 0 mm 3 mps 758 mmHg 48%
17:00 +31°C° 0 mm 2 mps 758 mmHg 54%
18:00 +30°C° 0 mm 2 mps 758 mmHg 61%
19:00 +29°C° 0 mm 2 mps 759 mmHg 63%
20:00 +27°C° 0 mm 1 mps 759 mmHg 65%
21:00 +26°C° 0 mm 1 mps 759 mmHg 67%
22:00 +25°C° 0 mm 1 mps 759 mmHg 69%
23:00 +24°C° 0 mm 1 mps 759 mmHg 70%

Day after tomorrow, 18 June, Friday

Time Temperature Precipitation Wind Pressure Humidity
00:00 +24°C° 0 mm 1 mps 759 mmHg 71%
01:00 +24°C° 0 mm 2 mps 759 mmHg 73%
02:00 +23°C° 0 mm 2 mps 759 mmHg 76%
03:00 +23°C° 0 mm 2 mps 758 mmHg 78%
04:00 +23°C° 0 mm 2 mps 758 mmHg 81%
05:00 +23°C° 0 mm 2 mps 759 mmHg 84%
06:00 +24°C° 0 mm 2 mps 759 mmHg 86%
07:00 +26°C° 0 mm 3 mps 759 mmHg 82%
08:00 +28°C° 0 mm 3 mps 759 mmHg 77%
09:00 +30°C° 0 mm 4 mps 759 mmHg 72%
10:00 +30°C° 0.3 mm 4 mps 759 mmHg 73%
11:00 +30°C° 0.3 mm 5 mps 759 mmHg 75%
12:00 +30°C° 0.3 mm 5 mps 758 mmHg 76%
13:00 +29°C° 0.7 mm 5 mps 758 mmHg 80%
14:00 +28°C° 0.7 mm 5 mps 758 mmHg 85%
15:00 +27°C° 0.7 mm 5 mps 758 mmHg 90%
16:00 +26°C° 3.8 mm 5 mps 758 mmHg 92%
17:00 +25°C° 3.8 mm 5 mps 757 mmHg 95%
18:00 +25°C° 3.8 mm 5 mps 757 mmHg 97%
19:00 +25°C° 4.6 mm 5 mps 757 mmHg 97%
20:00 +25°C° 4.6 mm 4 mps 758 mmHg 97%
21:00 +25°C° 4.6 mm 4 mps 758 mmHg 98%
22:00 +25°C° 2.3 mm 4 mps 758 mmHg 97%
23:00 +25°C° 2.3 mm 4 mps 758 mmHg 97%

19 June, Saturday

Time Temperature Precipitation Wind Pressure Humidity
00:00 +26°C° 2.3 mm 4 mps 758 mmHg 96%
01:00 +26°C° 2.6 mm 4 mps 757 mmHg 96%
02:00 +25°C° 2.6 mm 4 mps 757 mmHg 96%
03:00 +25°C° 2.6 mm 4 mps 757 mmHg 96%
04:00 +25°C° 1.7 mm 4 mps 757 mmHg 96%
05:00 +26°C° 1.7 mm 4 mps 757 mmHg 96%
06:00 +26°C° 1.7 mm 4 mps 757 mmHg 96%
07:00 +26°C° 0.8 mm 5 mps 757 mmHg 95%
08:00 +27°C° 0.8 mm 5 mps 757 mmHg 94%
09:00 +27°C° 0.8 mm 5 mps 757 mmHg 94%
10:00 +27°C° 0.6 mm 6 mps 757 mmHg 93%
11:00 +27°C° 0.6 mm 6 mps 757 mmHg 93%
12:00 +27°C° 0.6 mm 6 mps 756 mmHg 93%
13:00 +27°C° 1.6 mm 6 mps 756 mmHg 93%
14:00 +27°C° 1.6 mm 6 mps 755 mmHg 93%
15:00 +27°C° 1.6 mm 6 mps 755 mmHg 93%
16:00 +27°C° 1 mm 6 mps 755 mmHg 93%
17:00 +27°C° 1 mm 6 mps 755 mmHg 93%
18:00 +27°C° 1 mm 6 mps 755 mmHg 93%
19:00 +27°C° 0.7 mm 6 mps 755 mmHg 94%
20:00 +27°C° 0.7 mm 6 mps 755 mmHg 95%
21:00 +27°C° 0.7 mm 5 mps 756 mmHg 96%
22:00 +27°C° 0.1 mm 5 mps 756 mmHg 96%
23:00 +27°C° 0.1 mm 5 mps 756 mmHg 96%

20 June, Sunday

Time Temperature Precipitation Wind Pressure Humidity
00:00 +27°C° 0.1 mm 5 mps 756 mmHg 96%
01:00 +27°C° 0.1 mm 5 mps 756 mmHg 96%
02:00 +26°C° 0.1 mm 5 mps 756 mmHg 96%
03:00 +26°C° 0.1 mm 5 mps 755 mmHg 96%
04:00 +26°C° 0.1 mm 4 mps 756 mmHg 96%
05:00 +26°C° 0.1 mm 4 mps 756 mmHg 96%
06:00 +26°C° 0.1 mm 4 mps 756 mmHg 96%
07:00 +28°C° 0.1 mm 5 mps 756 mmHg 90%
08:00 +29°C° 0.1 mm 5 mps 756 mmHg 84%
09:00 +32°C° 0.1 mm 6 mps 757 mmHg 78%
10:00 +32°C° 0.1 mm 6 mps 756 mmHg 74%
11:00 +33°C° 0.1 mm 6 mps 756 mmHg 69%
12:00 +34°C° 0.1 mm 7 mps 756 mmHg 64%
13:00 +33°C° 0.3 mm 6 mps 756 mmHg 69%
14:00 +32°C° 0.3 mm 6 mps 756 mmHg 74%
15:00 +30°C° 0.3 mm 5 mps 756 mmHg 79%
16:00 +30°C° 0 mm 5 mps 756 mmHg 81%
17:00 +29°C° 0 mm 4 mps 756 mmHg 84%
18:00 +29°C° 0 mm 4 mps 756 mmHg 86%
19:00 +28°C° 0 mm 4 mps 756 mmHg 88%
20:00 +28°C° 0 mm 3 mps 757 mmHg 90%
21:00 +27°C° 0 mm 3 mps 757 mmHg 92%
22:00 +27°C° 0 mm 3 mps 756 mmHg 93%
23:00 +27°C° 0 mm 3 mps 756 mmHg 94%

21 June, Monday

Time Temperature Precipitation Wind Pressure Humidity
00:00 +27°C° 0 mm 3 mps 756 mmHg 95%
01:00 +27°C° 0.1 mm 2 mps 756 mmHg 96%
02:00 +27°C° 0.1 mm 2 mps 756 mmHg 96%
03:00 +27°C° 0.1 mm 2 mps 756 mmHg 97%
04:00 +27°C° 0.2 mm 2 mps 757 mmHg 97%
05:00 +27°C° 0.2 mm 3 mps 757 mmHg 96%
06:00 +27°C° 0.2 mm 3 mps 757 mmHg 95%
07:00 +28°C° 0.5 mm 3 mps 758 mmHg 94%
08:00 +28°C° 0.5 mm 3 mps 758 mmHg 93%
09:00 +28°C° 0.5 mm 2 mps 758 mmHg 91%
10:00 +28°C° 1 mm 3 mps 759 mmHg 90%
11:00 +28°C° 1 mm 3 mps 759 mmHg 88%
12:00 +28°C° 1 mm 3 mps 759 mmHg 87%
13:00 +28°C° 0.2 mm 3 mps 759 mmHg 86%
14:00 +27°C° 0.2 mm 3 mps 758 mmHg 85%
15:00 +27°C° 0.2 mm 2 mps 758 mmHg 84%
16:00 +27°C° 0.1 mm 3 mps 758 mmHg 87%
17:00 +26°C° 0.1 mm 3 mps 758 mmHg 91%
18:00 +26°C° 0.1 mm 3 mps 758 mmHg 94%
19:00 +26°C° 0 mm 3 mps 758 mmHg 95%
20:00 +25°C° 0 mm 2 mps 758 mmHg 95%
21:00 +25°C° 0 mm 2 mps 758 mmHg 95%
22:00 +25°C° 0 mm 1 mps 758 mmHg 95%
23:00 +25°C° 0 mm 1 mps 759 mmHg 96%
Show more